FDX9295 CYMX-CYQB

Flight info

Callsign FDX9295
Flight time 0h 49m
Altitude 13000
Route ANTEG DCT OBRON DCT MOBUB DCT PESAC
Aircraft AT75/M-SDFGIRY/S

Departure

Time 2026-04-25 13:29
Airport Montreal Mirabel International Airport (CYMX)

Arrival

Time 2026-04-25 14:19
Airport Quebec Jean Lesage International Airport (CYQB)
Time Latitude Longitude Altitude Speed Heading
2026-04-25 12:49 45.67745 -74.04810 278 ft 0 kts 276°
2026-04-25 12:56 45.67745 -74.04811 278 ft 0 kts 276°
2026-04-25 12:59 45.67745 -74.04812 278 ft 0 kts 276°
2026-04-25 12:59 45.67744 -74.04797 278 ft 2 kts 269°
2026-04-25 12:59 45.67747 -74.04771 278 ft 3 kts 252°
2026-04-25 13:00 45.67756 -74.04745 278 ft 3 kts 233°
2026-04-25 13:00 45.67760 -74.04738 278 ft 3 kts 227°
2026-04-25 13:00 45.67788 -74.04710 278 ft 3 kts 202°
2026-04-25 13:00 45.67808 -74.04702 278 ft 3 kts 189°
2026-04-25 13:01 45.67822 -74.04700 278 ft 0 kts 185°
2026-04-25 13:02 45.67816 -74.04701 278 ft 2 kts 183°
2026-04-25 13:02 45.67799 -74.04702 278 ft 2 kts 180°
2026-04-25 13:02 45.67783 -74.04702 278 ft 2 kts 180°
2026-04-25 13:02 45.67768 -74.04702 278 ft 2 kts 178°
2026-04-25 13:03 45.67757 -74.04698 278 ft 1 kts 157°
2026-04-25 13:03 45.67750 -74.04693 278 ft 1 kts 143°
2026-04-25 13:03 45.67745 -74.04682 278 ft 2 kts 123°
2026-04-25 13:03 45.67737 -74.04660 278 ft 3 kts 113°
2026-04-25 13:04 45.67730 -74.04643 278 ft 3 kts 132°
2026-04-25 13:04 45.67712 -74.04632 278 ft 3 kts 175°
2026-04-25 13:04 45.67680 -74.04634 278 ft 7 kts 186°
2026-04-25 13:04 45.67622 -74.04643 278 ft 10 kts 184°
2026-04-25 13:05 45.67558 -74.04651 278 ft 8 kts 186°
2026-04-25 13:05 45.67497 -74.04660 278 ft 9 kts 185°
2026-04-25 13:05 45.67431 -74.04669 278 ft 8 kts 185°
2026-04-25 13:05 45.67379 -74.04676 278 ft 7 kts 184°
2026-04-25 13:06 45.67336 -74.04681 278 ft 7 kts 185°
2026-04-25 13:06 45.67280 -74.04689 278 ft 10 kts 185°
2026-04-25 13:06 45.67223 -74.04694 278 ft 6 kts 180°
2026-04-25 13:06 45.67180 -74.04696 278 ft 6 kts 167°
2026-04-25 13:07 45.67157 -74.04664 278 ft 5 kts 111°
2026-04-25 13:07 45.67150 -74.04615 278 ft 5 kts 98°
2026-04-25 13:07 45.67146 -74.04565 278 ft 5 kts 97°
2026-04-25 13:07 45.67141 -74.04510 278 ft 5 kts 96°
2026-04-25 13:08 45.67137 -74.04457 278 ft 5 kts 96°
2026-04-25 13:08 45.67132 -74.04398 278 ft 7 kts 98°
2026-04-25 13:08 45.67127 -74.04330 278 ft 8 kts 96°
2026-04-25 13:08 45.67127 -74.04218 278 ft 15 kts 76°
2026-04-25 13:09 45.67163 -74.04063 278 ft 16 kts 69°
2026-04-25 13:09 45.67207 -74.03903 278 ft 16 kts 69°
2026-04-25 13:09 45.67247 -74.03752 278 ft 17 kts 69°
2026-04-25 13:09 45.67289 -74.03595 278 ft 17 kts 69°
2026-04-25 13:10 45.67331 -74.03441 278 ft 17 kts 69°
2026-04-25 13:10 45.67369 -74.03292 278 ft 14 kts 70°
2026-04-25 13:10 45.67402 -74.03168 278 ft 13 kts 69°
2026-04-25 13:10 45.67434 -74.03051 278 ft 13 kts 69°
2026-04-25 13:11 45.67468 -74.02922 278 ft 15 kts 69°
2026-04-25 13:11 45.67511 -74.02763 278 ft 18 kts 68°
2026-04-25 13:11 45.67578 -74.02614 278 ft 19 kts 48°
2026-04-25 13:11 45.67663 -74.02482 278 ft 18 kts 47°
2026-04-25 13:12 45.67751 -74.02348 278 ft 18 kts 46°
2026-04-25 13:12 45.67829 -74.02229 278 ft 15 kts 46°
2026-04-25 13:12 45.67903 -74.02117 278 ft 15 kts 45°
2026-04-25 13:12 45.67949 -74.02047 278 ft 14 kts 46°
2026-04-25 13:13 45.68051 -74.01890 278 ft 18 kts 46°
2026-04-25 13:13 45.68135 -74.01765 278 ft 17 kts 46°
2026-04-25 13:13 45.68215 -74.01646 278 ft 16 kts 46°
2026-04-25 13:13 45.68288 -74.01535 278 ft 15 kts 46°
2026-04-25 13:14 45.68355 -74.01433 278 ft 13 kts 46°
2026-04-25 13:14 45.68418 -74.01338 278 ft 13 kts 46°
2026-04-25 13:14 45.68471 -74.01260 278 ft 9 kts 46°
2026-04-25 13:14 45.68514 -74.01191 278 ft 9 kts 47°
2026-04-25 13:15 45.68557 -74.01127 278 ft 9 kts 47°
2026-04-25 13:15 45.68596 -74.01069 278 ft 7 kts 47°
2026-04-25 13:15 45.68649 -74.00990 278 ft 21 kts 46°
2026-04-25 13:15 45.68736 -74.00862 278 ft 17 kts 46°
2026-04-25 13:16 45.68810 -74.00749 278 ft 15 kts 46°
2026-04-25 13:16 45.68879 -74.00644 278 ft 13 kts 47°
2026-04-25 13:16 45.68935 -74.00558 278 ft 10 kts 47°
2026-04-25 13:16 45.68979 -74.00489 278 ft 9 kts 47°
2026-04-25 13:17 45.69038 -74.00374 278 ft 18 kts 64°
2026-04-25 13:17 45.69100 -74.00205 278 ft 17 kts 61°
2026-04-25 13:17 45.69159 -74.00042 278 ft 19 kts 62°
2026-04-25 13:17 45.69212 -73.99895 278 ft 15 kts 61°
2026-04-25 13:18 45.69251 -73.99786 278 ft 12 kts 63°
2026-04-25 13:18 45.69279 -73.99709 278 ft 10 kts 62°
2026-04-25 13:18 45.69307 -73.99633 278 ft 4 kts 62°
2026-04-25 13:18 45.69338 -73.99550 278 ft 20 kts 63°
2026-04-25 13:19 45.69388 -73.99417 278 ft 12 kts 59°
2026-04-25 13:19 45.69426 -73.99331 278 ft 9 kts 58°
2026-04-25 13:19 45.69453 -73.99262 278 ft 7 kts 63°
2026-04-25 13:19 45.69476 -73.99198 278 ft 11 kts 56°
2026-04-25 13:20 45.69536 -73.99146 278 ft 7 kts 18°
2026-04-25 13:20 45.69552 -73.99123 278 ft 0 kts 133°
2026-04-25 13:26 45.69551 -73.99122 278 ft 1 kts 133°
2026-04-25 13:26 45.69515 -73.99085 278 ft 8 kts 151°
2026-04-25 13:26 45.69448 -73.99025 278 ft 17 kts 143°
2026-04-25 13:26 45.69369 -73.98938 278 ft 13 kts 133°
2026-04-25 13:27 45.69326 -73.98915 278 ft 0 kts 216°
2026-04-25 13:28 45.69295 -73.98956 278 ft 27 kts 226°
2026-04-25 13:28 45.68764 -73.99720 278 ft 96 kts 224°
2026-04-25 13:28 45.68220 -74.00483 279 ft 122 kts 226°
2026-04-25 13:29 45.67603 -74.01427 376 ft 130 kts 230°
2026-04-25 13:29 45.66985 -74.02334 643 ft 129 kts 226°
2026-04-25 13:29 45.66313 -74.03201 892 ft 129 kts 227°
2026-04-25 13:30 45.65006 -74.04843 1508 ft 121 kts 226°
2026-04-25 13:30 45.64456 -74.05535 1780 ft 118 kts 224°
2026-04-25 13:30 45.63865 -74.06252 2104 ft 114 kts 226°
2026-04-25 13:31 45.62608 -74.07610 2689 ft 111 kts 225°
2026-04-25 13:31 45.61984 -74.08249 2976 ft 111 kts 225°
2026-04-25 13:31 45.61301 -74.08939 3033 ft 130 kts 226°
2026-04-25 13:31 45.60545 -74.09793 3026 ft 146 kts 235°
2026-04-25 13:32 45.60034 -74.11044 3092 ft 149 kts 258°
2026-04-25 13:32 45.60129 -74.12589 2930 ft 167 kts 294°
2026-04-25 13:32 45.61047 -74.13585 3140 ft 172 kts 345°
2026-04-25 13:32 45.62191 -74.13185 3527 ft 188 kts 24°
2026-04-25 13:33 45.63167 -74.11604 3108 ft 230 kts 55°
2026-04-25 13:33 45.63900 -74.09670 3501 ft 214 kts 59°
2026-04-25 13:33 45.64541 -74.07772 3766 ft 208 kts 60°
2026-04-25 13:33 45.64745 -74.07143 3865 ft 206 kts 60°
2026-04-25 13:34 45.65684 -74.04118 4346 ft 195 kts 60°
2026-04-25 13:34 45.66207 -74.02356 4643 ft 190 kts 60°
2026-04-25 13:34 45.66700 -74.00641 4938 ft 185 kts 60°
2026-04-25 13:34 45.67127 -73.98921 5205 ft 187 kts 75°
2026-04-25 13:35 45.66921 -73.97024 5413 ft 193 kts 109°
2026-04-25 13:35 45.66676 -73.95183 5604 ft 193 kts 76°
2026-04-25 13:35 45.67273 -73.93497 5594 ft 175 kts 32°
2026-04-25 13:35 45.68037 -73.92540 6499 ft 126 kts 20°
2026-04-25 13:36 45.68828 -73.91682 6329 ft 165 kts 26°
2026-04-25 13:36 45.69641 -73.90471 6701 ft 161 kts 39°
2026-04-25 13:36 45.70264 -73.89222 7081 ft 160 kts 43°
2026-04-25 13:36 45.70933 -73.87780 7053 ft 181 kts 47°
2026-04-25 13:37 45.71563 -73.86278 7420 ft 174 kts 49°
2026-04-25 13:37 45.72185 -73.84736 7552 ft 182 kts 50°
2026-04-25 13:37 45.72820 -73.83163 7774 ft 184 kts 50°
2026-04-25 13:37 45.73466 -73.81563 7981 ft 186 kts 51°
2026-04-25 13:38 45.74115 -73.79950 8185 ft 189 kts 51°
2026-04-25 13:38 45.74777 -73.78303 8391 ft 191 kts 51°
2026-04-25 13:38 45.75446 -73.76647 8598 ft 193 kts 52°
2026-04-25 13:38 45.76119 -73.74976 8799 ft 195 kts 52°
2026-04-25 13:39 45.76741 -73.73427 8973 ft 196 kts 52°
2026-04-25 13:39 45.77196 -73.72303 9111 ft 197 kts 52°
2026-04-25 13:39 45.78071 -73.70142 9355 ft 199 kts 52°
2026-04-25 13:39 45.78761 -73.68426 9553 ft 199 kts 52°
2026-04-25 13:40 45.79456 -73.66703 9747 ft 200 kts 52°
2026-04-25 13:40 45.80146 -73.64986 9953 ft 201 kts 52°
2026-04-25 13:40 45.80855 -73.63224 10152 ft 202 kts 52°
2026-04-25 13:40 45.81560 -73.61473 10354 ft 204 kts 52°
2026-04-25 13:41 45.82273 -73.59704 10551 ft 205 kts 52°
2026-04-25 13:41 45.82976 -73.57953 10737 ft 206 kts 52°
2026-04-25 13:41 45.83691 -73.56165 10938 ft 207 kts 52°
2026-04-25 13:41 45.84406 -73.54378 11138 ft 207 kts 52°
2026-04-25 13:42 45.85127 -73.52578 11339 ft 208 kts 52°
2026-04-25 13:42 45.85797 -73.50906 11522 ft 209 kts 52°
2026-04-25 13:42 45.86469 -73.49231 11697 ft 210 kts 52°
2026-04-25 13:42 45.86719 -73.48607 11754 ft 210 kts 52°
2026-04-25 13:43 45.87351 -73.47035 11907 ft 212 kts 52°
2026-04-25 13:43 45.88089 -73.45191 12086 ft 214 kts 52°
2026-04-25 13:43 45.88828 -73.43337 12256 ft 216 kts 52°
2026-04-25 13:43 45.89326 -73.42090 12371 ft 217 kts 52°
2026-04-25 13:44 45.90119 -73.40100 12557 ft 218 kts 52°
2026-04-25 13:44 45.90802 -73.38379 12725 ft 218 kts 52°
2026-04-25 13:44 45.91561 -73.36479 12903 ft 221 kts 52°
2026-04-25 13:44 45.92328 -73.34568 12962 ft 229 kts 52°
2026-04-25 13:45 45.93144 -73.32539 12964 ft 239 kts 53°
2026-04-25 13:45 45.93988 -73.30407 12937 ft 251 kts 54°
2026-04-25 13:45 45.94570 -73.28929 12969 ft 256 kts 54°
2026-04-25 13:45 45.95772 -73.26268 12967 ft 260 kts 45°
2026-04-25 13:46 45.96364 -73.25291 12963 ft 260 kts 38°
2026-04-25 13:46 45.97034 -73.24308 12966 ft 262 kts 38°
2026-04-25 13:46 45.97880 -73.23031 12956 ft 266 kts 39°
2026-04-25 13:46 45.99150 -73.21046 12948 ft 270 kts 40°
2026-04-25 13:47 46.00431 -73.19046 12987 ft 272 kts 40°
2026-04-25 13:47 46.01723 -73.17036 12987 ft 275 kts 41°
2026-04-25 13:47 46.03029 -73.15009 12990 ft 276 kts 41°
2026-04-25 13:47 46.04214 -73.13171 12988 ft 278 kts 41°
2026-04-25 13:48 46.05327 -73.11447 12987 ft 279 kts 41°
2026-04-25 13:48 46.06654 -73.09391 12980 ft 280 kts 41°
2026-04-25 13:48 46.07983 -73.07333 12972 ft 281 kts 41°
2026-04-25 13:48 46.09318 -73.05266 12967 ft 282 kts 41°
2026-04-25 13:49 46.10642 -73.03215 12963 ft 283 kts 41°
2026-04-25 13:49 46.11997 -73.01114 12956 ft 283 kts 41°
2026-04-25 13:49 46.13325 -72.99055 12958 ft 283 kts 41°
2026-04-25 13:49 46.14662 -72.96979 12953 ft 284 kts 41°
2026-04-25 13:50 46.16009 -72.94888 12951 ft 284 kts 41°
2026-04-25 13:50 46.17326 -72.92740 12947 ft 286 kts 45°
2026-04-25 13:50 46.18556 -72.90472 12944 ft 288 kts 48°
2026-04-25 13:50 46.19744 -72.88148 12941 ft 288 kts 48°
2026-04-25 13:51 46.20942 -72.85816 12940 ft 289 kts 49°
2026-04-25 13:51 46.22139 -72.83481 12930 ft 290 kts 48°
2026-04-25 13:51 46.23350 -72.81116 12704 ft 298 kts 49°
2026-04-25 13:51 46.24570 -72.78723 12450 ft 286 kts 49°
2026-04-25 13:52 46.25706 -72.76484 12189 ft 268 kts 49°
2026-04-25 13:52 46.26779 -72.74374 11928 ft 254 kts 48°
2026-04-25 13:52 46.27805 -72.72358 11667 ft 242 kts 47°
2026-04-25 13:52 46.28654 -72.70693 11441 ft 234 kts 47°
2026-04-25 13:53 46.29605 -72.68827 11179 ft 225 kts 47°
2026-04-25 13:53 46.30515 -72.67037 10921 ft 219 kts 46°
2026-04-25 13:53 46.31409 -72.65282 10660 ft 214 kts 46°
2026-04-25 13:53 46.32277 -72.63581 10410 ft 210 kts 46°
2026-04-25 13:54 46.33136 -72.61893 10159 ft 207 kts 46°
2026-04-25 13:54 46.33992 -72.60212 9913 ft 209 kts 46°
2026-04-25 13:54 46.34856 -72.58508 9666 ft 212 kts 46°
2026-04-25 13:54 46.35769 -72.56725 9438 ft 228 kts 47°
2026-04-25 13:55 46.36746 -72.54811 9200 ft 242 kts 47°
2026-04-25 13:55 46.37758 -72.52805 8959 ft 251 kts 48°
2026-04-25 13:55 46.38800 -72.50727 8710 ft 257 kts 48°
2026-04-25 13:55 46.39857 -72.48628 8461 ft 260 kts 48°
2026-04-25 13:56 46.40933 -72.46485 8212 ft 264 kts 49°
2026-04-25 13:56 46.42007 -72.44345 8085 ft 261 kts 48°
2026-04-25 13:56 46.43071 -72.42218 8026 ft 257 kts 48°
2026-04-25 13:56 46.44104 -72.40153 8011 ft 251 kts 48°
2026-04-25 13:57 46.45117 -72.38126 8009 ft 246 kts 48°
2026-04-25 13:57 46.45785 -72.36798 8013 ft 244 kts 47°
2026-04-25 13:57 46.47118 -72.34150 8016 ft 241 kts 48°
2026-04-25 13:57 46.48106 -72.32187 8021 ft 240 kts 47°
2026-04-25 13:58 46.49094 -72.30242 8027 ft 239 kts 47°
2026-04-25 13:58 46.50075 -72.28286 8029 ft 239 kts 47°
2026-04-25 13:58 46.51050 -72.26341 8032 ft 238 kts 48°
2026-04-25 13:58 46.52021 -72.24400 8031 ft 238 kts 47°
2026-04-25 13:59 46.52993 -72.22455 8039 ft 238 kts 47°
2026-04-25 13:59 46.53965 -72.20507 8043 ft 238 kts 47°
2026-04-25 13:59 46.54935 -72.18563 8047 ft 237 kts 47°
2026-04-25 13:59 46.55751 -72.16905 8049 ft 238 kts 48°
2026-04-25 14:00 46.56719 -72.14909 8024 ft 239 kts 49°
2026-04-25 14:00 46.57677 -72.12933 8011 ft 239 kts 49°
2026-04-25 14:00 46.58622 -72.10984 8012 ft 239 kts 49°
2026-04-25 14:00 46.59584 -72.09007 8015 ft 239 kts 48°
2026-04-25 14:01 46.60544 -72.07040 8022 ft 238 kts 49°
2026-04-25 14:01 46.61497 -72.05074 8023 ft 238 kts 49°
2026-04-25 14:01 46.62445 -72.03117 8034 ft 236 kts 48°
2026-04-25 14:01 46.63390 -72.01168 8039 ft 236 kts 49°
2026-04-25 14:02 46.64338 -71.99213 8046 ft 236 kts 49°
2026-04-25 14:02 46.65282 -71.97259 8051 ft 236 kts 49°
2026-04-25 14:02 46.66228 -71.95303 8039 ft 238 kts 49°
2026-04-25 14:02 46.66874 -71.93970 7747 ft 244 kts 50°
2026-04-25 14:03 46.68144 -71.91338 7404 ft 232 kts 49°
2026-04-25 14:03 46.69051 -71.89452 7149 ft 223 kts 49°
2026-04-25 14:03 46.69935 -71.87617 6893 ft 218 kts 49°
2026-04-25 14:03 46.70792 -71.85839 6636 ft 213 kts 49°
2026-04-25 14:04 46.71635 -71.84089 6385 ft 209 kts 48°
2026-04-25 14:04 46.72470 -71.82357 6133 ft 207 kts 49°
2026-04-25 14:04 46.73298 -71.80636 5879 ft 207 kts 48°
2026-04-25 14:04 46.74126 -71.78913 5632 ft 208 kts 49°
2026-04-25 14:05 46.74956 -71.77184 5379 ft 208 kts 50°
2026-04-25 14:05 46.75773 -71.75476 5129 ft 209 kts 50°
2026-04-25 14:05 46.76613 -71.73729 4883 ft 212 kts 51°
2026-04-25 14:05 46.77465 -71.71951 4634 ft 215 kts 51°
2026-04-25 14:06 46.78326 -71.70150 4383 ft 217 kts 52°
2026-04-25 14:06 46.79195 -71.68342 4133 ft 218 kts 52°
2026-04-25 14:06 46.80064 -71.66534 3994 ft 212 kts 53°
2026-04-25 14:06 46.80883 -71.64814 3937 ft 207 kts 52°
2026-04-25 14:07 46.81695 -71.63108 3926 ft 197 kts 52°
2026-04-25 14:07 46.82465 -71.61491 3932 ft 190 kts 52°
2026-04-25 14:07 46.83201 -71.59950 3948 ft 184 kts 52°
2026-04-25 14:07 46.83913 -71.58454 3988 ft 175 kts 53°
2026-04-25 14:08 46.84605 -71.57001 3934 ft 175 kts 52°
2026-04-25 14:08 46.85282 -71.55584 3992 ft 166 kts 52°
2026-04-25 14:08 46.85933 -71.54217 3991 ft 161 kts 52°
2026-04-25 14:08 46.86499 -71.53031 4006 ft 157 kts 51°
2026-04-25 14:09 46.87086 -71.51802 4007 ft 153 kts 51°
2026-04-25 14:09 46.87709 -71.50509 4013 ft 161 kts 49°
2026-04-25 14:09 46.88383 -71.49112 4072 ft 177 kts 51°
2026-04-25 14:09 46.88624 -71.48606 4072 ft 183 kts 52°
2026-04-25 14:10 46.89901 -71.45904 4052 ft 204 kts 53°
2026-04-25 14:10 46.90720 -71.44161 4030 ft 211 kts 53°
2026-04-25 14:10 46.91569 -71.42365 4005 ft 216 kts 53°
2026-04-25 14:10 46.92434 -71.40543 3994 ft 219 kts 53°
2026-04-25 14:11 46.93299 -71.38677 3971 ft 222 kts 54°
2026-04-25 14:11 46.94159 -71.36853 3956 ft 219 kts 53°
2026-04-25 14:11 46.95032 -71.35015 3961 ft 215 kts 53°
2026-04-25 14:11 46.95866 -71.33256 4006 ft 211 kts 53°
2026-04-25 14:12 46.96701 -71.31494 3972 ft 212 kts 54°
2026-04-25 14:12 46.97544 -71.29699 3915 ft 214 kts 54°
2026-04-25 14:12 46.98208 -71.27744 3848 ft 216 kts 73°
2026-04-25 14:12 46.98370 -71.25568 3797 ft 219 kts 97°
2026-04-25 14:13 46.97985 -71.23421 3727 ft 221 kts 120°
2026-04-25 14:13 46.97066 -71.21580 3491 ft 229 kts 143°
2026-04-25 14:13 46.95891 -71.20480 3372 ft 229 kts 162°
2026-04-25 14:13 46.94580 -71.20008 3176 ft 229 kts 180°
2026-04-25 14:14 46.93150 -71.20233 2966 ft 227 kts 199°
2026-04-25 14:14 46.91737 -71.21232 2694 ft 226 kts 219°
2026-04-25 14:14 46.90720 -71.22704 2507 ft 220 kts 231°
2026-04-25 14:14 46.89667 -71.24174 2324 ft 195 kts 226°
2026-04-25 14:15 46.88752 -71.25446 2215 ft 169 kts 228°
2026-04-25 14:15 46.88479 -71.25826 2230 ft 159 kts 227°
2026-04-25 14:15 46.87259 -71.27356 2136 ft 118 kts 224°
2026-04-25 14:15 46.86688 -71.28017 2073 ft 98 kts 224°
2026-04-25 14:16 46.86167 -71.28615 2041 ft 104 kts 223°
2026-04-25 14:16 46.85773 -71.29284 1936 ft 113 kts 257°
2026-04-25 14:16 46.85862 -71.30405 1754 ft 106 kts 281°
2026-04-25 14:16 46.85653 -71.31456 1535 ft 128 kts 233°
2026-04-25 14:17 46.84986 -71.32337 1623 ft 119 kts 224°
2026-04-25 14:17 46.84510 -71.32889 1817 ft 96 kts 224°
2026-04-25 14:17 46.83985 -71.33462 1658 ft 90 kts 219°
2026-04-25 14:17 46.83449 -71.34042 1383 ft 100 kts 225°
2026-04-25 14:18 46.82965 -71.34721 1150 ft 93 kts 222°
2026-04-25 14:18 46.82437 -71.35247 819 ft 94 kts 216°
2026-04-25 14:18 46.81825 -71.35850 748 ft 107 kts 227°
2026-04-25 14:18 46.81268 -71.36567 865 ft 107 kts 215°
2026-04-25 14:19 46.80684 -71.37205 717 ft 104 kts 223°
2026-04-25 14:19 46.80326 -71.37715 263 ft 0 kts 223°